Theta_e
300 300 300 300 301 301 301 301 301 301 302 302 304 304 304 304 304 306 307 306 306 305 305 308 311 315 316 315 315 314 312 311 311 308 311 306 308 309 309 308 308 308 308 307 307
301 301 301 300 300 300 300 301 301 301 301 302 303 304 304 304 304 305 305 305 306 306 307 312 314 315 314 313 313 310 312 312 307 306 307 306 308 309 308 307 307 307 307 307 306
306 306 304 302 301 301 301 301 301 301 301 302 302 304 304 304 305 305 304 305 307 307 310 313 314 314 312 311 310 308 312 306 306 307 307 306 306 308 306 306 308 308 308 307 306
315 313 312 308 303 303 302 302 302 301 301 302 302 303 304 305 304 305 304 305 308 310 312 313 313 313 308 309 308 308 305 306 306 307 306 305 307 306 306 308 307 307 307 306 306
320 319 317 314 309 307 306 306 306 305 303 302 302 303 304 305 307 305 304 305 309 310 312 312 313 311 307 306 307 307 305 305 305 306 306 306 305 306 306 308 308 307 305 305 304
320 320 320 319 315 315 314 314 313 311 306 302 302 303 304 305 306 305 304 305 309 310 311 312 312 311 307 305 306 305 304 304 305 305 306 306 305 306 305 306 306 306 306 305 305
320 320 320 321 320 320 319 319 316 314 303 302 302 303 304 305 305 305 304 305 308 310 311 312 312 311 308 304 305 304 305 304 304 305 304 305 304 303 305 305 306 305 305 305 305
321 321 320 320 321 320 320 319 312 313 304 302 302 304 304 305 305 305 304 305 307 309 310 310 310 310 307 305 304 303 300 304 302 304 304 304 303 299 303 305 305 305 305 305 305
320 321 321 321 321 320 321 319 311 308 307 303 303 304 304 305 305 305 304 305 306 308 309 309 309 306 305 302 301 300 302 302 302 302 303 302 303 300 302 304 304 305 305 305 305
319 320 320 320 320 320 320 316 310 309 305 304 304 305 303 304 305 305 305 306 306 308 308 308 307 302 300 301 304 302 303 302 302 303 303 302 301 299 302 303 304 305 305 305 305
318 318 319 319 319 319 319 313 313 311 310 311 308 307 304 304 305 305 305 306 307 307 304 304 304 305 304 301 300 300 302 303 302 302 303 301 301 302 302 301 302 303 304 305 304
316 316 318 319 318 318 318 313 313 311 308 308 309 307 304 304 305 305 305 306 305 302 302 302 303 303 302 301 303 302 303 303 303 302 302 302 303 302 301 302 304 304 304 304 304
312 314 316 316 317 318 317 313 310 314 312 309 307 307 305 305 304 305 305 305 302 302 302 302 303 303 302 303 303 303 303 302 303 303 301 301 303 302 302 302 304 303 304 303 304
305 308 311 313 314 317 317 312 313 315 310 311 307 307 306 305 305 305 305 305 303 301 300 303 304 303 303 303 303 304 302 302 304 304 304 301 307 303 304 303 302 304 304 304 304
298 301 306 309 314 316 316 314 313 315 316 308 306 306 305 305 304 304 305 305 302 303 302 302 304 304 304 304 303 304 304 304 304 303 303 304 304 306 304 308 304 303 305 304 303
296 297 303 309 312 314 315 312 315 315 318 305 306 305 305 306 305 305 306 305 304 303 302 304 304 304 304 304 304 303 304 303 301 304 308 307 307 314 312 308 303 303 304 303 302
294 297 307 309 311 311 308 313 314 319 304 307 307 304 305 306 305 304 304 304 303 303 303 303 305 304 304 304 305 305 305 308 310 308 312 302 304 311 305 303 302 302 303 302 301
294 297 306 308 312 306 308 309 315 303 303 305 305 304 306 305 305 304 303 303 302 302 301 303 303 305 303 304 304 304 306 309 311 313 309 301 308 313 303 302 303 302 302 302 301
296 297 304 307 312 305 309 314 309 306 306 306 306 306 307 305 305 305 302 303 302 301 306 304 306 303 303 303 303 305 305 305 304 293 307 309 309 309 304 301 302 302 302 302 302
297 299 303 308 311 306 307 311 306 306 305 306 311 307 307 305 305 305 304 304 305 302 305 303 308 303 304 303 304 304 302 307 304 307 309 310 306 311 306 303 300 300 302 303 303
298 299 302 307 310 307 311 309 305 309 306 307 308 306 307 305 305 303 305 305 305 302 305 305 308 306 304 304 304 304 304 304 305 307 310 310 311 301 303 302 302 301 305 305 305
298 294 301 306 305 303 305 298 306 307 306 307 307 306 306 304 305 305 305 305 304 304 308 307 305 307 306 302 302 302 304 304 309 309 304 306 310 302 300 301 302 304 305 306 306
296 298 302 305 306 305 300 303 305 306 305 306 308 308 304 304 306 305 304 303 305 304 307 307 305 305 307 304 301 304 303 303 303 304 305 309 310 302 300 301 304 304 306 306 305
295 291 299 303 301 300 303 301 303 305 305 306 306 307 306 305 306 305 304 303 306 307 308 306 304 307 311 309 304 306 304 303 304 304 306 306 308 306 306 304 305 307 307 305 305
294 294 294 301 300 298 302 301 304 304 304 305 304 307 308 308 307 306 305 304 305 305 306 305 305 307 307 305 303 306 306 303 303 305 307 308 305 306 305 304 305 306 303 302 303
293 293 295 294 298 301 301 300 300 303 303 303 301 305 306 306 307 308 306 305 304 304 305 303 307 304 301 302 304 306 304 303 304 304 302 303 305 304 306 306 306 306 302 301 302
290 292 292 289 295 300 297 297 300 299 300 301 302 303 304 303 304 304 305 305 304 303 305 306 299 302 302 296 302 303 302 304 303 302 304 306 306 305 305 305 306 305 301 301 301
Wind_Speed
5 5 3 2 2 2 2 2 1 1 0 1 1 2 4 7 8 8 7 5 6 8 12 15 16 15 10 5 5 4 4 2 5 6 2 10 4 7 4 6 6 5 3 3 7
6 5 4 3 2 2 2 2 2 1 1 1 2 3 5 7 8 7 4 5 8 10 15 16 17 14 6 4 3 4 4 7 5 5 3 8 4 11 5 4 5 6 8 8 8
5 5 4 3 3 3 2 2 1 1 2 2 2 3 6 8 6 5 5 8 9 13 16 15 15 8 5 4 4 3 4 3 3 1 2 9 3 7 6 4 10 10 13 11 10
4 4 3 2 2 2 2 2 1 1 1 2 3 4 8 10 3 6 6 9 11 14 16 14 11 6 4 4 3 5 3 2 3 4 5 6 7 4 11 4 3 8 9 13 11
4 3 3 2 1 1 1 1 2 2 2 2 3 5 10 6 2 5 7 11 13 14 14 13 9 6 6 6 4 4 4 4 4 5 4 6 2 6 11 15 12 7 12 13 11
6 3 2 1 1 0 1 2 3 3 1 3 4 6 7 4 4 4 7 11 14 14 14 12 8 8 11 5 3 4 6 4 3 4 3 2 2 1 3 13 12 12 13 13 11
7 4 3 2 1 1 2 3 5 1 2 3 4 7 6 4 5 5 8 12 14 13 13 10 12 7 10 6 7 7 4 2 1 1 2 1 5 7 10 7 12 14 14 14 12
7 5 4 3 3 1 3 4 3 2 3 4 5 7 4 7 5 6 9 11 12 12 11 12 10 12 5 16 6 4 5 1 1 3 1 3 8 2 5 12 14 16 17 17 15
7 5 4 4 3 3 2 4 2 2 4 5 5 5 4 7 6 7 10 12 13 13 12 14 9 7 8 6 4 6 3 3 4 4 2 3 7 0 2 11 15 20 21 21 19
6 5 5 4 3 3 2 0 3 3 5 5 5 4 6 6 8 8 11 15 10 16 12 5 4 4 3 3 5 6 3 3 3 2 1 2 14 7 6 11 19 23 25 26 26
10 10 7 4 3 2 1 3 3 2 4 3 4 3 8 9 10 9 13 12 16 8 4 2 3 6 9 5 5 7 4 3 2 1 3 5 9 16 13 19 25 30 32 34 31
17 16 13 9 5 2 2 3 2 4 3 3 5 6 8 9 5 11 15 7 6 4 4 6 5 4 6 5 4 4 4 4 2 2 3 4 13 12 12 15 29 35 36 35 32
24 22 20 14 9 7 2 3 4 2 3 2 4 5 6 7 2 11 13 9 5 4 3 6 1 4 4 4 6 3 5 4 3 2 1 5 8 5 5 14 21 17 22 24 32
18 18 17 14 11 11 6 4 2 3 4 2 3 3 6 6 2 7 11 5 3 6 6 3 0 4 3 4 4 4 4 5 6 3 3 3 5 6 6 9 6 8 10 19 25
13 15 14 14 8 13 11 7 3 3 1 2 3 4 5 5 6 2 6 3 8 5 5 5 3 3 3 2 3 3 3 5 3 4 3 3 2 8 5 6 5 9 18 11 18
9 11 16 15 14 13 13 14 9 4 7 1 2 4 4 2 2 4 3 5 7 5 5 3 2 2 2 2 2 7 6 6 5 3 2 1 3 6 2 1 6 7 14 10 12
6 11 16 18 14 16 17 15 3 5 2 3 3 4 2 3 2 1 4 5 5 5 1 3 2 1 2 5 2 1 5 1 3 2 4 2 3 10 4 6 2 10 17 7 7
5 12 18 18 17 18 20 3 7 3 5 2 3 4 4 5 1 2 5 3 3 4 3 6 3 4 2 1 5 4 4 5 6 3 3 3 5 5 4 4 4 5 6 2 3
3 7 18 20 19 20 11 5 7 7 6 9 3 4 3 3 4 2 6 5 7 8 5 4 1 3 3 2 1 4 3 2 7 3 3 2 6 5 2 5 8 7 4 2 4
4 9 14 21 19 19 2 9 3 3 5 3 7 4 6 6 5 6 7 3 4 5 2 6 4 3 3 2 3 1 3 3 2 3 3 3 5 4 3 5 7 6 3 0 4
5 5 13 18 19 10 6 3 3 3 3 5 5 4 4 6 6 5 6 1 1 5 2 5 4 1 1 4 5 1 1 4 3 3 4 3 5 5 5 0 2 4 3 4 6
4 1 14 19 5 4 5 6 4 4 4 2 3 3 5 6 5 5 8 2 3 7 6 3 5 4 4 1 1 1 3 5 3 5 1 2 5 4 4 1 1 5 8 15 12
2 1 12 21 6 4 1 3 5 4 4 4 4 2 2 5 3 3 4 1 1 4 7 5 0 3 2 1 2 4 4 3 4 2 5 5 5 1 3 3 8 11 23 25 18
1 2 2 8 2 3 4 1 4 3 3 3 3 2 4 3 4 5 3 1 1 3 4 5 3 3 5 3 4 4 4 4 4 3 4 4 5 5 6 6 11 24 25 24 21
2 1 1 3 3 3 3 3 5 4 1 4 2 1 4 4 2 2 3 2 4 3 3 3 4 2 1 2 0 2 3 7 7 5 5 3 7 4 6 5 13 16 21 24 21
3 3 2 3 1 5 5 2 2 3 4 1 5 3 3 3 2 6 6 4 3 2 2 3 3 3 2 2 3 4 6 6 7 5 7 10 15 7 17 2 9 16 18 26 23
2 1 3 5 2 4 4 5 5 6 2 3 6 5 5 5 3 7 10 7 9 7 5 5 5 3 4 3 3 7 9 13 7 5 7 9 10 5 2 7 13 14 18 20 23
Wind_Direction
157 148 144 153 153 158 166 168 159 284 277 121 146 169 159 165 162 168 176 186 171 165 162 155 154 152 146 119 103 110 68 144 197 160 203 166 148 164 162 147 185 195 200 215 195
147 135 128 122 118 128 137 155 178 193 234 222 168 166 166 170 165 185 196 179 160 156 158 154 150 147 115 99 70 80 106 205 183 180 170 181 172 168 162 163 210 215 214 202 192
162 153 142 127 111 97 84 107 137 218 248 235 189 172 171 164 156 198 191 173 161 154 157 156 151 139 96 97 36 79 141 150 153 194 151 165 170 169 157 233 222 222 217 203 202
180 170 165 156 129 100 71 68 64 331 274 245 210 174 173 169 161 182 181 172 165 158 161 157 155 123 90 104 76 84 96 114 142 159 143 166 161 191 212 227 219 236 222 206 204
189 183 177 174 151 136 66 23 0 343 292 215 207 175 161 182 186 181 181 171 169 164 167 157 153 128 120 114 96 82 149 104 121 139 152 153 214 228 243 236 241 230 202 201 203
212 205 200 162 142 136 4 349 337 317 275 201 183 177 173 155 183 185 181 172 173 169 169 165 159 146 112 80 73 101 102 99 123 128 129 159 225 246 291 230 223 216 205 202 210
216 216 228 220 206 341 351 349 339 317 151 161 172 171 175 177 189 180 175 173 174 173 171 161 151 149 121 100 107 112 83 84 92 147 73 266 281 236 247 210 205 201 203 207 216
219 230 233 245 264 284 334 345 9 107 128 140 156 166 142 175 164 165 165 167 169 169 171 155 147 122 102 120 67 70 54 87 301 150 38 112 268 15 231 207 204 205 210 215 220
231 249 252 254 270 248 318 343 55 121 137 140 153 167 137 159 162 156 159 159 158 155 152 148 150 99 121 98 51 13 180 199 310 200 117 145 266 168 205 207 222 222 221 222 223
230 254 247 267 261 231 273 334 123 115 119 134 148 148 163 169 156 152 152 151 141 146 136 148 98 81 48 108 193 184 201 231 243 202 77 192 267 257 240 220 234 236 232 229 227
257 250 246 258 241 216 230 174 173 151 175 169 147 129 144 147 147 152 151 150 144 145 136 83 108 191 201 174 139 132 156 184 169 151 177 238 270 279 248 241 242 241 234 231 228
254 263 255 248 245 235 206 188 163 141 126 164 169 145 155 159 131 153 155 148 141 137 114 36 225 202 113 142 120 133 140 193 119 108 174 336 281 262 243 239 239 240 238 235 229
256 251 250 246 242 228 225 192 144 113 118 168 180 169 163 178 152 162 167 137 110 118 143 155 253 135 116 149 140 172 170 172 164 125 116 325 293 316 275 258 263 265 263 255 239
257 254 234 233 234 220 209 185 149 60 64 218 176 184 171 163 85 159 163 145 73 155 137 120 75 155 129 179 138 190 189 130 127 103 240 11 281 301 279 289 7 342 301 262 240
250 250 233 206 197 190 190 183 159 124 8 57 152 151 145 155 136 122 156 119 142 133 122 207 135 149 159 177 173 186 102 105 96 102 75 338 53 269 360 314 5 353 339 295 247
256 219 213 198 192 185 180 171 145 54 237 143 118 152 111 72 93 122 133 99 113 91 39 98 90 71 101 62 35 151 79 53 53 93 26 286 132 283 237 324 321 324 333 293 239
265 197 188 188 186 176 168 152 79 194 311 195 169 168 128 142 110 135 155 141 145 106 180 30 20 14 115 90 32 133 105 349 355 26 212 169 76 249 328 301 282 313 325 318 232
282 197 187 188 178 172 164 80 207 239 181 144 117 112 180 151 39 126 127 156 193 100 117 144 239 178 354 155 176 176 175 163 198 186 175 123 226 254 274 336 5 359 7 38 201
263 191 186 187 180 174 177 198 198 201 157 142 82 116 183 181 133 152 190 195 193 172 149 131 46 328 28 346 52 185 187 133 101 22 78 241 279 314 319 40 31 27 39 114 174
195 177 184 183 183 175 119 209 152 163 125 132 172 160 174 185 139 174 180 197 180 168 164 177 91 8 332 335 28 195 154 79 1 151 236 289 285 232 262 338 2 8 28 221 207
169 160 180 176 176 163 206 216 198 183 150 154 179 133 170 176 171 178 182 252 59 150 143 146 107 322 7 207 187 147 183 54 108 141 159 149 258 206 202 15 335 332 39 320 266
177 107 167 176 137 173 196 181 147 166 183 154 127 114 163 163 154 184 188 197 154 156 161 210 115 145 196 236 219 261 224 176 138 196 94 110 276 182 217 110 227 300 310 335 306
138 62 171 178 197 208 62 137 177 144 194 167 163 152 142 162 124 158 160 68 166 150 154 177 158 90 24 15 6 215 202 162 117 92 188 143 253 213 219 233 284 314 341 334 316
113 74 148 190 158 140 130 259 143 182 123 128 129 116 118 101 14 155 128 59 55 93 82 125 97 152 185 129 113 186 191 198 147 128 182 215 264 289 296 324 338 342 340 335 321
9 1 291 185 174 112 130 163 154 143 209 158 42 190 155 125 105 114 99 125 55 29 49 90 120 106 113 98 80 239 173 174 197 195 191 221 225 251 258 303 321 340 356 352 344
43 9 360 21 120 138 180 187 134 125 125 206 135 151 109 99 319 175 138 182 185 44 93 1 126 92 342 3 206 254 226 195 215 235 254 262 281 193 284 299 340 345 359 3 356
338 163 4 347 355 135 186 171 178 126 68 70 168 114 100 130 60 89 107 125 152 141 144 151 131 112 257 356 345 289 201 195 191 193 172 197 227 219 358 332 333 330 354 356 3